Regional Weather Roundup
Issued by NWS Charleston, WV

Home | Current Version | Previous Version | Graphics & Text | Print | Product List | Glossary On
Versions: 1 2 3 4 5 6 7 8 9 10 11 12 13 14 15 16 17 18 19 20 21 22 23 24 25 26 27 28 29 30 31 32 33 34 35 36 37 38 39 40 41 42 43 44
000
ASUS41 KRLX 231510
RWRRLX
West Virginia Regional Weather Roundup
National Weather Service Charleston WV
1000 AM EST THU FEB 23 2017

Note: "fair" indicates few or no clouds below 12,000 feet with no
significant weather and/or obstructions to visibility.

WVZ003-231600-
Northern Panhandle of West Virginia

CITY           SKY/WX    TMP DP  RH WIND       PRES   REMARKS
WHEELING       CLOUDY    58  53  84 S10       29.83F
$$

WVZ009-231600-
Northwest West Virginia

CITY           SKY/WX    TMP DP  RH WIND       PRES   REMARKS
PARKERSBURG    CLOUDY    59  54  83 S9        29.89S
$$

WVZ006-231600-
Western West Virginia

CITY           SKY/WX    TMP DP  RH WIND       PRES   REMARKS
HUNTINGTON     CLOUDY    57  52  83 S7        29.88S
$$

WVZ015-231600-
West Central West Virginia

CITY           SKY/WX    TMP DP  RH WIND       PRES   REMARKS
CHARLESTON     CLOUDY    57  54  89 CALM      29.90S
$$

WVZ022-031-231600-
North Central West Virginia

CITY           SKY/WX    TMP DP  RH WIND       PRES   REMARKS
CLARKSBURG     CLOUDY    60  53  77 SW8       29.89R
MORGANTOWN     CLOUDY    60  52  74 VRB6      29.89R
$$

WVZ025-035-042-045-231600-
Southern West Virginia

CITY           SKY/WX    TMP DP  RH WIND       PRES   REMARKS
BECKLEY        CLOUDY    56  51  84 S3        29.95S
LOGAN          CLOUDY    55  52  88 CALM      29.92S
BLUEFIELD      CLOUDY    57  49  74 CALM      29.97S
LEWISBURG      CLOUDY    49  49  99 CALM      29.97S FOG
$$

WVZ047-231600-
Northern Mountains of West Virginia

CITY           SKY/WX    TMP DP  RH WIND       PRES   REMARKS
ELKINS         CLOUDY    57  51  80 CALM      29.93R
$$

WVZ052-231600-
Eastern Panhandle of West Virginia

CITY           SKY/WX    TMP DP  RH WIND       PRES   REMARKS
MARTINSBURG    MOSUNNY   65  52  62 S7        29.87F
PETERSBURG     MOSUNNY   65  53  65 S8        29.89F
$$




USA.gov is the U.S. government's official web portal to all federal, state and local government web resources and services.